| time (UTC) | temp F | wind direction | speed MPH | gust MPH | rain 1hr in | rain 24hr in | rain mn in | humidity % | barometer mb |
| 20260902111541 | 64 | 134 | 1.0 | 5.0 | 0.00 | 0.07 | 0.00 | 96 | 1018.3 |
| 20260902110043 | 64 | 112 | 1.0 | 9.0 | 0.00 | 0.07 | 0.00 | 95 | 1018.3 |
| 20260902104539 | 64 | 130 | 1.0 | 10.0 | 0.00 | 0.10 | 0.00 | 95 | 1018.6 |
| 20260902103037 | 64 | 117 | 1.0 | 11.0 | 0.00 | 0.10 | 0.00 | 95 | 1018.8 |
| 20260902101531 | 64 | 134 | 3.0 | 8.0 | 0.00 | 0.10 | 0.00 | 95 | 1018.8 |
| 20260902100031 | 64 | 144 | 3.0 | 8.0 | 0.00 | 0.10 | 0.00 | 95 | 1018.5 |
| 20260902094528 | 65 | 114 | 2.0 | 11.0 | 0.00 | 0.25 | 0.00 | 94 | 1018.7 |
| 20260902093036 | 65 | 101 | 1.0 | 7.0 | 0.00 | 0.25 | 0.00 | 95 | 1018.4 |
| 20260902091527 | 65 | 123 | 0.0 | 5.0 | 0.00 | 0.25 | 0.00 | 95 | 1018.4 |
| 20260902090025 | 65 | 123 | 0.0 | 4.0 | 0.00 | 0.25 | 0.00 | 95 | 1018.5 |
| 20260902084524 | 66 | 129 | 0.0 | 4.0 | 0.00 | 0.37 | 0.00 | 95 | 1018.2 |
| 20260902083032 | 66 | 119 | 2.0 | 7.0 | 0.00 | 0.37 | 0.00 | 95 | 1018.3 |
| 20260902081524 | 66 | 128 | 3.0 | 7.0 | 0.00 | 0.37 | 0.00 | 95 | 1018.2 |
| 20260902080025 | 66 | 146 | 1.0 | 5.0 | 0.00 | 0.37 | 0.00 | 95 | 1018.2 |
| 20260902074518 | 66 | 142 | 3.0 | 7.0 | 0.00 | 0.43 | 0.00 | 95 | 1018.2 |
| 20260902073028 | 66 | 129 | 2.0 | 6.0 | 0.00 | 0.43 | 0.00 | 96 | 1018.1 |
| 20260902071518 | 67 | 138 | 0.0 | 3.0 | 0.00 | 0.43 | 0.00 | 96 | 1017.9 |
| 20260902070016 | 67 | 139 | 0.0 | 5.0 | 0.00 | 0.43 | 0.00 | 96 | 1018.1 |
| 20260902064516 | 67 | 147 | 0.0 | 0.0 | 0.00 | 0.43 | 0.00 | 96 | 1018.2 |
| 20260902063017 | 67 | 117 | 0.0 | 4.0 | 0.00 | 0.43 | 0.00 | 96 | 1018.3 |
| 20260902061515 | 67 | 140 | 0.0 | 2.0 | 0.00 | 0.43 | 0.00 | 97 | 1018.2 |
| 20260902060017 | 67 | 157 | 0.0 | 6.0 | 0.00 | 0.43 | 0.00 | 97 | 1018.1 |
| 20260902054521 | 67 | 123 | 0.0 | 0.0 | 0.00 | 0.43 | 0.00 | 97 | 1018.1 |
| 20260902053011 | 67 | 122 | 0.0 | 4.0 | 0.00 | 0.43 | 0.00 | 97 | 1017.9 |
| 20260902051510 | 66 | 128 | 2.0 | 5.0 | 0.00 | 0.43 | 0.00 | 97 | 1017.8 |
| 20260902050009 | 66 | 141 | 0.0 | 0.0 | 0.00 | 0.43 | 0.00 | 98 | 1017.8 |
| 20260902044507 | 66 | 141 | 0.0 | 0.0 | 0.00 | 0.43 | 0.00 | 98 | 1017.6 |
| 20260902043008 | 67 | 141 | 0.0 | 0.0 | 0.00 | 0.43 | 0.00 | 98 | 1017.8 |
| 20260902041505 | 66 | 141 | 0.0 | 1.0 | 0.00 | 0.43 | 0.00 | 98 | 1017.6 |
| 20260902040006 | 66 | 141 | 0.0 | 2.0 | 0.00 | 0.43 | 0.43 | 98 | 1017.4 |
| 20260902034502 | 66 | 141 | 0.0 | 1.0 | 0.00 | 0.43 | 0.43 | 98 | 1017.4 |
| 20260902033001 | 66 | 141 | 0.0 | 0.0 | 0.00 | 0.43 | 0.43 | 99 | 1017.4 |
| 20260902031501 | 66 | 141 | 0.0 | 0.0 | 0.00 | 0.43 | 0.43 | 99 | 1017.4 |
| 20260902030104 | 66 | 141 | 0.0 | 0.0 | 0.00 | 0.43 | 0.43 | 98 | 1017.3 |
| 20260902024606 | 66 | 141 | 0.0 | 2.0 | 0.00 | 0.43 | 0.43 | 98 | 1017.4 |
| 20260902023101 | 66 | 141 | 0.0 | 0.0 | 0.00 | 0.43 | 0.43 | 98 | 1017.4 |
| 20260902021600 | 66 | 140 | 0.0 | 4.0 | 0.00 | 0.43 | 0.43 | 98 | 1017.3 |
| 20260902014558 | 67 | 144 | 0.0 | 0.0 | 0.00 | 0.43 | 0.43 | 97 | 1017.3 |
| 20260902013057 | 67 | 144 | 0.0 | 3.0 | 0.00 | 0.43 | 0.43 | 97 | 1017.5 |
| 20260902011557 | 67 | 146 | 0.0 | 0.0 | 0.00 | 0.43 | 0.43 | 97 | 1017.3 |
| 20260902010056 | 67 | 146 | 0.0 | 0.0 | 0.00 | 0.43 | 0.43 | 97 | 1017.0 |
| 20260902004556 | 67 | 146 | 0.0 | 0.0 | 0.00 | 0.43 | 0.43 | 96 | 1016.7 |
| 20260902003059 | 68 | 148 | 0.0 | 0.0 | 0.00 | 0.43 | 0.43 | 96 | 1016.4 |
| 20260902001555 | 68 | 148 | 0.0 | 0.0 | 0.00 | 0.43 | 0.43 | 95 | 1016.4 |
| 20260902000114 | 68 | 148 | 0.0 | 0.0 | 0.00 | 0.43 | 0.43 | 94 | 1016.2 |
| 20260901234556 | 68 | 148 | 0.0 | 1.0 | 0.00 | 0.43 | 0.43 | 94 | 1016.2 |
| 20260901233054 | 68 | 148 | 0.0 | 2.0 | 0.00 | 0.43 | 0.43 | 94 | 1016.2 |
| 20260901231553 | 69 | 146 | 0.0 | 5.0 | 0.00 | 0.43 | 0.43 | 94 | 1016.4 |
| 20260901230107 | 69 | 135 | 0.0 | 1.0 | 0.00 | 0.43 | 0.43 | 94 | 1016.4 |
| 20260901224553 | 69 | 135 | 0.0 | 0.0 | 0.00 | 0.43 | 0.43 | 93 | 1016.3 |
| 20260901223110 | 69 | 135 | 0.0 | 6.0 | 0.00 | 0.43 | 0.43 | 94 | 1016.1 |
| 20260901221551 | 69 | 171 | 0.0 | 1.0 | 0.00 | 0.43 | 0.43 | 94 | 1015.9 |
| 20260901220114 | 70 | 186 | 0.0 | 2.0 | 0.00 | 0.43 | 0.43 | 94 | 1015.9 |
| 20260901214550 | 70 | 141 | 0.0 | 2.0 | 0.00 | 0.43 | 0.43 | 93 | 1016.0 |
| 20260901213112 | 70 | 148 | 0.0 | 3.0 | 0.00 | 0.43 | 0.43 | 93 | 1016.1 |
| 20260901211649 | 70 | 154 | 0.0 | 0.0 | 0.00 | 0.43 | 0.43 | 92 | 1016.2 |
| 20260901210059 | 71 | 156 | 0.0 | 3.0 | 0.00 | 0.43 | 0.43 | 92 | 1015.9 |
| 20260901204548 | 71 | 228 | 0.0 | 2.0 | 0.00 | 0.43 | 0.43 | 93 | 1015.7 |
| 20260901203100 | 71 | 228 | 0.0 | 4.0 | 0.00 | 0.43 | 0.43 | 93 | 1015.7 |
| 20260901201547 | 71 | 209 | 0.0 | 3.0 | 0.00 | 0.43 | 0.43 | 94 | 1015.7 |
| 20260901200047 | 70 | 226 | 0.0 | 4.0 | 0.00 | 0.43 | 0.43 | 94 | 1015.8 |
| 20260901194550 | 70 | 196 | 0.0 | 3.0 | 0.00 | 0.44 | 0.43 | 94 | 1015.9 |
| 20260901193053 | 70 | 199 | 0.0 | 1.0 | 0.00 | 0.44 | 0.43 | 94 | 1016.0 |
| 20260901191546 | 71 | 196 | 0.0 | 1.0 | 0.00 | 0.44 | 0.43 | 94 | 1015.8 |
| 20260901190046 | 71 | 193 | 0.0 | 3.0 | 0.00 | 0.44 | 0.43 | 93 | 1015.6 |
| 20260901184547 | 71 | 121 | 0.0 | 1.0 | 0.00 | 0.44 | 0.43 | 92 | 1015.6 |
| 20260901183049 | 72 | 112 | 0.0 | 0.0 | 0.00 | 0.44 | 0.43 | 92 | 1015.4 |
| 20260901181547 | 72 | 112 | 0.0 | 4.0 | 0.00 | 0.44 | 0.43 | 91 | 1015.3 |
| 20260901180043 | 72 | 120 | 0.0 | 1.0 | 0.00 | 0.44 | 0.43 | 92 | 1015.3 |
| 20260901174539 | 71 | 111 | 0.0 | 4.0 | 0.00 | 0.44 | 0.43 | 92 | 1015.4 |
| 20260901173051 | 70 | 134 | 0.0 | 0.0 | 0.00 | 0.44 | 0.43 | 93 | 1015.4 |
| 20260901171539 | 70 | 133 | 0.0 | 5.0 | 0.00 | 0.44 | 0.43 | 92 | 1015.4 |
| 20260901170036 | 70 | 100 | 0.0 | 1.0 | 0.00 | 0.44 | 0.43 | 93 | 1015.4 |
| 20260901164533 | 69 | 73 | 3.0 | 8.0 | 0.00 | 0.44 | 0.43 | 93 | 1015.3 |
| 20260901163032 | 69 | 133 | 1.0 | 5.0 | 0.00 | 0.44 | 0.43 | 95 | 1015.4 |
| 20260901161535 | 68 | 119 | 2.0 | 7.0 | 0.00 | 0.44 | 0.43 | 95 | 1015.5 |
| 20260901160032 | 68 | 140 | 0.0 | 5.0 | 0.00 | 0.44 | 0.43 | 96 | 1015.5 |
| 20260901154528 | 68 | 140 | 2.0 | 8.0 | 0.00 | 0.44 | 0.43 | 96 | 1015.5 |
| 20260901153033 | 68 | 103 | 2.0 | 7.0 | 0.00 | 0.44 | 0.43 | 98 | 1015.4 |
| 20260901151527 | 68 | 123 | 0.0 | 6.0 | 0.01 | 0.44 | 0.43 | 99 | 1015.2 |
| 20260901150025 | 67 | 109 | 0.0 | 4.0 | 0.01 | 0.44 | 0.43 | 99 | 1015.3 |
| 20260901144525 | 67 | 219 | 1.0 | 5.0 | 0.01 | 0.44 | 0.43 | 99 | 1015.1 |
| 20260901143023 | 66 | 128 | 0.0 | 0.0 | 0.01 | 0.44 | 0.43 | 99 | 1015.3 |
| 20260901141521 | 66 | 127 | 0.0 | 2.0 | 0.00 | 0.43 | 0.42 | 99 | 1015.8 |
| 20260901140022 | 66 | 130 | 0.0 | 5.0 | 0.00 | 0.43 | 0.42 | 99 | 1016.0 |
| 20260901134522 | 66 | 94 | 0.0 | 8.0 | 0.00 | 0.43 | 0.42 | 99 | 1015.8 |
| 20260901133016 | 65 | 134 | 0.0 | 3.0 | 0.00 | 0.43 | 0.42 | 99 | 1015.6 |
| 20260901131516 | 65 | 134 | 0.0 | 2.0 | 0.00 | 0.43 | 0.42 | 99 | 1015.7 |
| 20260901130034 | 65 | 135 | 0.0 | 1.0 | 0.00 | 0.43 | 0.42 | 99 | 1016.0 |
| 20260901124514 | 65 | 135 | 0.0 | 0.0 | 0.01 | 0.43 | 0.42 | 99 | 1015.9 |
| 20260901123020 | 65 | 135 | 0.0 | 0.0 | 0.01 | 0.43 | 0.42 | 99 | 1015.9 |
| 20260901121514 | 65 | 135 | 0.0 | 1.0 | 0.05 | 0.43 | 0.42 | 99 | 1016.0 |
| 20260901120027 | 65 | 134 | 0.0 | 3.0 | 0.06 | 0.43 | 0.42 | 99 | 1015.9 |
| 20260901114512 | 65 | 134 | 0.0 | 0.0 | 0.05 | 0.42 | 0.41 | 99 | 1016.2 |
| 20260901113012 | 65 | 134 | 0.0 | 0.0 | 0.05 | 0.42 | 0.41 | 99 | 1016.3 |